Le Mars, IA

8:20 PM CST on January 18, 2017 (GMT -0600)
Le Mars Municipal

Weather History for KLRJ - November, 2012

Change the Weather History Date:

Saturday, November 17, 2012

  Actual Average Record
Temperature  
Mean Temperature 48 °F -  
Max Temperature 60 °F 47 °F 113 °F (1997)
Min Temperature 37 °F 26 °F 3 °F (2011)
Degree Days  
Heating Degree Days 16    
Moisture  
Dew Point 34 °F    
Average Humidity 64    
Maximum Humidity 87    
Minimum Humidity 36    
Precipitation  
Precipitation 0.00 in - - ()
Sea Level Pressure  
Sea Level Pressure 30.16 in    
Wind  
Wind Speed 13 mph (South)    
Max Wind Speed 25 mph    
Max Gust Speed 32 mph    
Visibility 10 miles    
Events      
Averages and records for this station are not official NWS values.
T = Trace of Precipitation, MM = Missing Value Source: NWS Daily Summary

Daily Weather History Graph

Daily Weather History Graph

Search for Another Location

Airport or City:

Trip Planner

Search our weather history database for the weather conditions in past years. The results will help you decide how hot, cold, wet, or windy it might be!

Date:

Astronomy

Nov. 17, 2012 Rise Set
Actual Time 7:19 AM CST 4:59 PM CST
Civil Twilight 6:49 AM CST 5:30 PM CST
Nautical Twilight 6:14 AM CST 6:04 PM CST
Astronomical Twilight 5:41 AM CST 6:38 PM CST
Moon 11:05 AM CST (11/17) 9:11 PM CST (11/17)
Length of Visible Light 10h 41m
Length of Day
9h 39m
Waxing Crescent, 20% of the Moon is Illuminated
Nov 17
Waxing Crescent
Nov 20
First Quarter
Nov 28
Full
Dec 6
Last Quarter
Dec 13
New

Hourly Weather History & Observations

Time (CST) Temp. Windchill Dew Point Humidity Pressure Visibility Wind Dir Wind Speed Gust Speed Precip Events Conditions
12:15 AM 37.4 °F 32.1 °F 32.0 °F 81% 30.26 in 10.0 mi South 6.9 mph - N/A   Clear
12:35 AM 37.4 °F 31.4 °F 32.0 °F 81% 30.25 in 10.0 mi South 8.1 mph - N/A   Clear
12:55 AM 37.4 °F 31.4 °F 33.8 °F 87% 30.25 in 10.0 mi South 8.1 mph - N/A   Clear
1:15 AM 39.2 °F 32.5 °F 33.8 °F 81% 30.25 in 10.0 mi South 10.4 mph - N/A   Clear
1:35 AM 39.2 °F 32.5 °F 33.8 °F 81% 30.24 in 10.0 mi South 10.4 mph - N/A   Clear
1:55 AM 39.2 °F 32.0 °F 33.8 °F 81% 30.24 in 10.0 mi South 11.5 mph - N/A   Clear
2:15 AM 39.2 °F 32.0 °F 33.8 °F 81% 30.24 in 10.0 mi South 11.5 mph - N/A   Clear
2:35 AM 39.2 °F 32.5 °F 33.8 °F 81% 30.24 in 10.0 mi South 10.4 mph - N/A   Clear
2:55 AM 39.2 °F 33.0 °F 33.8 °F 81% 30.24 in 10.0 mi South 9.2 mph - N/A   Clear
3:15 AM 39.2 °F 33.6 °F 33.8 °F 81% 30.23 in 10.0 mi South 8.1 mph - N/A   Clear
3:35 AM 39.2 °F 32.0 °F 33.8 °F 81% 30.23 in 10.0 mi South 11.5 mph - N/A   Clear
3:55 AM 37.4 °F 30.8 °F 33.8 °F 87% 30.22 in 10.0 mi South 9.2 mph - N/A   Clear
4:15 AM 37.4 °F 31.4 °F 33.8 °F 87% 30.22 in 10.0 mi South 8.1 mph - N/A   Clear
4:35 AM 39.2 °F 32.5 °F 33.8 °F 81% 30.22 in 10.0 mi South 10.4 mph - N/A   Clear
4:55 AM 39.2 °F 32.0 °F 33.8 °F 81% 30.22 in 10.0 mi South 11.5 mph - N/A   Clear
5:15 AM 39.2 °F 32.0 °F 33.8 °F 81% 30.22 in 10.0 mi South 11.5 mph - N/A   Clear
5:35 AM 39.2 °F 30.8 °F 33.8 °F 81% 30.21 in 10.0 mi South 15.0 mph - N/A   Clear
5:55 AM 39.2 °F 31.2 °F 33.8 °F 81% 30.21 in 10.0 mi South 13.8 mph - N/A   Clear
6:15 AM 39.2 °F 33.0 °F 33.8 °F 81% 30.21 in 10.0 mi South 9.2 mph - N/A   Clear
6:35 AM 39.2 °F 32.0 °F 33.8 °F 81% 30.21 in 10.0 mi South 11.5 mph - N/A   Clear
6:55 AM 39.2 °F 32.0 °F 33.8 °F 81% 30.21 in 10.0 mi South 11.5 mph - N/A   Clear
7:15 AM 39.2 °F 31.6 °F 33.8 °F 81% 30.21 in 10.0 mi South 12.7 mph - N/A   Clear
7:35 AM 41.0 °F 33.5 °F 33.8 °F 76% 30.21 in 10.0 mi South 13.8 mph 20.7 mph N/A   Clear
7:55 AM 41.0 °F 33.9 °F 33.8 °F 76% 30.21 in 10.0 mi South 12.7 mph - N/A   Clear
8:15 AM 41.0 °F 34.3 °F 33.8 °F 76% 30.21 in 10.0 mi South 11.5 mph - N/A   Clear
8:35 AM 42.8 °F 35.8 °F 33.8 °F 70% 30.22 in 10.0 mi South 13.8 mph - N/A   Clear
8:55 AM 42.8 °F 35.1 °F 33.8 °F 70% 30.22 in 10.0 mi South 16.1 mph - N/A   Clear
9:15 AM 46.4 °F 39.5 °F 33.8 °F 62% 30.21 in 10.0 mi South 17.3 mph 23.0 mph N/A   Scattered Clouds
9:35 AM 46.4 °F 39.2 °F 33.8 °F 62% 30.21 in 10.0 mi South 18.4 mph 25.3 mph N/A   Mostly Cloudy
9:55 AM 46.4 °F 39.5 °F 33.8 °F 62% 30.21 in 10.0 mi South 17.3 mph 24.2 mph N/A   Overcast
10:15 AM 46.4 °F 39.0 °F 33.8 °F 62% 30.21 in 10.0 mi South 19.6 mph 25.3 mph N/A   Overcast
10:35 AM 50.0 °F - 33.8 °F 54% 30.20 in 10.0 mi South 18.4 mph 26.5 mph N/A   Mostly Cloudy
11:55 AM 53.6 °F - 33.8 °F 47% 30.16 in 10.0 mi South 25.3 mph 28.8 mph N/A   Scattered Clouds
12:15 PM 55.4 °F - 33.8 °F 44% 30.15 in 10.0 mi South 19.6 mph 32.2 mph N/A   Clear
12:35 PM 55.4 °F - 33.8 °F 44% 30.14 in 10.0 mi South 20.7 mph 31.1 mph N/A   Clear
12:55 PM 55.4 °F - 33.8 °F 44% 30.13 in 10.0 mi South 20.7 mph 27.6 mph N/A   Clear
1:15 PM 55.4 °F - 33.8 °F 44% 30.13 in 10.0 mi South 20.7 mph 31.1 mph N/A   Clear
1:35 PM 55.4 °F - 33.8 °F 44% 30.12 in 10.0 mi South 23.0 mph 29.9 mph N/A   Clear
1:55 PM 55.4 °F - 33.8 °F 44% 30.11 in 10.0 mi South 18.4 mph 25.3 mph N/A   Clear
2:15 PM 59.0 °F - 33.8 °F 39% 30.11 in 10.0 mi South 23.0 mph 29.9 mph N/A   Clear
2:35 PM 60.8 °F - 33.8 °F 36% 30.10 in 10.0 mi South 25.3 mph - N/A   Clear
2:55 PM 59.0 °F - 35.6 °F 42% 30.10 in 10.0 mi South 19.6 mph 26.5 mph N/A   Clear
3:15 PM 57.2 °F - 35.6 °F 44% 30.09 in 10.0 mi South 18.4 mph 28.8 mph N/A   Clear
3:35 PM 57.2 °F - 35.6 °F 44% 30.09 in 10.0 mi South 17.3 mph 25.3 mph N/A   Clear
3:55 PM 57.2 °F - 35.6 °F 44% 30.09 in 10.0 mi South 17.3 mph 26.5 mph N/A   Clear
4:15 PM 55.4 °F - 35.6 °F 47% 30.09 in 10.0 mi South 17.3 mph 26.5 mph N/A   Clear
4:35 PM 55.4 °F - 35.6 °F 47% 30.09 in 10.0 mi South 17.3 mph 24.2 mph N/A   Clear
4:55 PM 55.4 °F - 35.6 °F 47% 30.10 in 10.0 mi South 17.3 mph 20.7 mph N/A   Clear
5:15 PM 53.6 °F - 35.6 °F 51% 30.10 in 10.0 mi South 13.8 mph - N/A   Clear
5:35 PM 53.6 °F - 35.6 °F 51% 30.11 in 10.0 mi South 10.4 mph 19.6 mph N/A   Clear
5:55 PM 50.0 °F - 35.6 °F 58% 30.11 in 10.0 mi SSE 6.9 mph - N/A   Clear
6:15 PM 50.0 °F - 35.6 °F 58% 30.11 in 10.0 mi SSE 9.2 mph - N/A   Clear
6:35 PM 51.8 °F - 33.8 °F 50% 30.11 in 10.0 mi SSE 15.0 mph - N/A   Clear
6:55 PM 50.0 °F - 33.8 °F 54% 30.11 in 10.0 mi SSE 13.8 mph - N/A   Clear
7:15 PM 50.0 °F - 33.8 °F 54% 30.11 in 10.0 mi SSE 13.8 mph - N/A   Clear
7:35 PM 48.2 °F - 33.8 °F 58% 30.11 in 10.0 mi South 13.8 mph - N/A   Clear
7:55 PM 48.2 °F - 33.8 °F 58% 30.11 in 10.0 mi SSE 13.8 mph - N/A   Clear
8:15 PM 48.2 °F - 33.8 °F 58% 30.11 in 10.0 mi South 15.0 mph - N/A   Clear
8:35 PM 48.2 °F - 33.8 °F 58% 30.11 in 10.0 mi South 16.1 mph - N/A   Clear
8:55 PM 48.2 °F - 33.8 °F 58% 30.11 in 10.0 mi SSE 15.0 mph - N/A   Clear
9:15 PM 48.2 °F - 33.8 °F 58% 30.11 in 10.0 mi South 15.0 mph 19.6 mph N/A   Clear
9:35 PM 48.2 °F - 33.8 °F 58% 30.11 in 10.0 mi South 16.1 mph 21.9 mph N/A   Clear
9:55 PM 48.2 °F - 33.8 °F 58% 30.10 in 10.0 mi South 16.1 mph 24.2 mph N/A   Clear
10:15 PM 46.4 °F 41.1 °F 33.8 °F 62% 30.10 in 10.0 mi South 11.5 mph - N/A   Clear
10:35 PM 44.6 °F 39.2 °F 33.8 °F 66% 30.10 in 10.0 mi South 10.4 mph 16.1 mph N/A   Clear
10:55 PM 46.4 °F 40.1 °F 33.8 °F 62% 30.10 in 10.0 mi South 15.0 mph - N/A   Clear
11:15 PM 46.4 °F 39.5 °F 33.8 °F 62% 30.10 in 10.0 mi South 17.3 mph - N/A   Clear
11:35 PM 46.4 °F 40.4 °F 33.8 °F 62% 30.10 in 10.0 mi South 13.8 mph - N/A   Clear
11:55 PM 46.4 °F 40.1 °F 33.8 °F 62% 30.10 in 10.0 mi South 15.0 mph - N/A   Clear